GW4446 Weather Reports


time (UTC)temp
C
wind
direction
speed
KPH
gust
KPH
rain 1hr
cm
rain 24hr
cm
rain mn
cm
humidity
%
barometer
mb
20260504223310 25 331 4.8 6.4 0.00 0.05 0.05 83 1014.9
20260504222807 25 326 3.2 3.2 0.00 0.05 0.05 81 1015.0
20260504222305 25 326 3.2 3.2 0.00 0.05 0.05 81 1015.1
20260504221801 25 351 0.0 3.2 0.00 0.05 0.05 83 1015.0
20260504221258 26 90 3.2 4.8 0.00 0.05 0.05 82 1014.9
20260504220755 26 90 3.2 4.8 0.00 0.05 0.05 82 1014.9
20260504220252 26 172 3.2 8.0 0.00 0.05 0.05 82 1014.7
20260504215749 26 144 6.4 8.0 0.00 0.05 0.05 82 1014.9
20260504215245 26 190 4.8 8.0 0.05 0.05 0.05 82 1014.7
20260504214741 27 175 8.0 11.3 0.00 0.03 0.03 80 1014.7
20260504214238 27 216 3.2 14.5 0.00 0.03 0.03 76 1014.4
20260504213735 27 192 4.8 9.7 0.00 0.03 0.03 77 1014.7
20260504213231 27 176 6.4 9.7 0.00 0.03 0.03 77 1014.7
20260504212728 27 186 3.2 11.3 0.00 0.03 0.03 77 1014.7
20260504212225 27 213 3.2 12.9 0.00 0.03 0.03 75 1014.3
20260504211723 27 133 8.0 9.7 0.00 0.03 0.03 75 1014.5
20260504211218 27 149 11.3 14.5 0.00 0.03 0.03 76 1014.4
20260504210716 27 186 6.4 11.3 0.00 0.03 0.03 75 1014.5
20260504210213 27 169 4.8 12.9 0.00 0.03 0.03 75 1014.5
20260504205710 27 173 14.5 14.5 0.00 0.03 0.03 76 1014.2
20260504205207 27 193 6.4 12.9 0.00 0.03 0.03 77 1014.5
20260504204706 27 165 3.2 9.7 0.00 0.03 0.03 78 1014.6
20260504204204 27 205 4.8 12.9 0.00 0.03 0.03 78 1014.7
20260504203702 27 143 6.4 11.3 0.00 0.03 0.03 77 1014.4
20260504203200 27 162 4.8 4.8 0.00 0.03 0.03 78 1014.7
20260504202700 27 176 3.2 9.7 0.00 0.03 0.03 80 1014.8
20260504202157 27 189 3.2 6.4 0.00 0.03 0.03 80 1014.6
20260504201654 27 154 3.2 9.7 0.00 0.03 0.03 80 1015.0
20260504201152 27 191 1.6 6.4 0.00 0.03 0.03 79 1015.0
20260504200649 27 186 1.6 6.4 0.00 0.03 0.03 81 1015.2
20260504200145 27 186 1.6 6.4 0.05 0.03 0.03 81 1015.2
20260504195641 27 144 1.6 1.6 0.18 0.03 0.03 81 1015.1
20260504195137 27 135 1.6 3.2 0.13 0.03 0.03 79 1015.3
20260504194634 28 135 6.4 9.7 0.00 0.00 0.00 74 1015.1
20260504194130 28 114 1.6 11.3 0.00 0.00 0.00 70 1015.2
20260504193627 28 118 6.4 9.7 0.00 0.00 0.00 70 1015.3
20260504193125 28 172 4.8 11.3 0.00 0.00 0.00 70 1015.3
20260504192623 28 159 6.4 11.3 0.00 0.00 0.00 73 1015.5
20260504192121 28 153 9.7 9.7 0.00 0.00 0.00 70 1015.4
20260504191619 29 104 3.2 11.3 0.00 0.00 0.00 69 1015.5
20260504191115 29 177 4.8 9.7 0.00 0.00 0.00 69 1015.5
20260504190611 29 177 6.4 9.7 0.00 0.00 0.00 67 1015.5
20260504190108 29 181 6.4 11.3 0.00 0.00 0.00 65 1015.5
20260504185604 29 163 4.8 11.3 0.00 0.00 0.00 67 1015.6
20260504185101 29 144 6.4 11.3 0.00 0.00 0.00 66 1015.6
20260504184556 30 155 9.7 14.5 0.00 0.00 0.00 64 1015.5
20260504184052 30 124 3.2 9.7 0.00 0.00 0.00 63 1015.5
20260504183549 30 219 3.2 9.7 0.00 0.00 0.00 66 1015.8
20260504183047 30 165 9.7 12.9 0.00 0.00 0.00 65 1015.7
20260504182544 30 173 8.0 9.7 0.00 0.00 0.00 65 1015.8
20260504182041 31 155 8.0 12.9 0.00 0.00 0.00 61 1015.7
20260504181538 31 162 6.4 12.9 0.00 0.00 0.00 64 1015.9
20260504181037 30 171 4.8 14.5 0.00 0.00 0.00 61 1015.9
20260504180535 31 142 3.2 12.9 0.00 0.00 0.00 61 1015.9
20260504180034 31 179 4.8 8.0 0.00 0.00 0.00 60 1016.1
20260504175531 32 184 3.2 12.9 0.00 0.00 0.00 57 1016.1
20260504175028 31 197 4.8 9.7 0.00 0.00 0.00 60 1016.3
20260504174525 31 147 4.8 11.3 0.00 0.00 0.00 60 1016.5
20260504174022 32 145 8.0 12.9 0.00 0.00 0.00 56 1016.4
20260504173519 31 160 4.8 11.3 0.00 0.00 0.00 58 1016.6
20260504173016 31 174 3.2 14.5 0.00 0.00 0.00 60 1016.6
20260504172512 32 176 4.8 12.9 0.00 0.00 0.00 58 1016.5
20260504172008 31 177 9.7 11.3 0.00 0.00 0.00 59 1016.7
20260504171506 32 167 4.8 11.3 0.00 0.00 0.00 58 1016.7
20260504171002 32 193 6.4 9.7 0.00 0.00 0.00 59 1016.8
20260504170458 32 160 6.4 11.3 0.00 0.00 0.00 58 1016.8
20260504160419 31 212 1.6 9.7 0.00 0.00 0.00 62 1016.9
20260504150842 30 165 3.2 8.0 0.00 0.00 0.00 63 1016.9
20260504150339 30 221 3.2 4.8 0.00 0.00 0.00 66 1017.0
20260504141309 30 90 4.8 6.4 0.00 0.00 0.00 60 1016.8
20260504140806 30 82 3.2 4.8 0.00 0.00 0.00 62 1016.7
20260504140301 30 69 6.4 6.4 0.00 0.00 0.00 61 1016.6
20260504130730 30 167 1.6 3.2 0.00 0.00 0.00 63 1016.3
20260504130226 29 217 3.2 3.2 0.00 0.00 0.00 65 1016.2
20260504120150 27 157 1.6 1.6 0.00 0.00 0.00 70 1015.4
20260504110617 24 126 1.6 3.2 0.00 0.00 0.00 81 1014.7
20260504110113 23 344 1.6 1.6 0.00 0.00 0.00 84 1014.7
20260504100539 23 39 1.6 1.6 0.00 0.00 0.00 86 1014.3
20260504081933 24 72 3.2 3.2 0.00 0.00 0.00 81 1014.5
20260504081429 24 322 1.6 3.2 0.00 0.00 0.00 82 1014.7
20260504080925 23 20 1.6 1.6 0.00 0.00 0.00 83 1014.8
20260504080422 23 28 1.6 1.6 0.00 0.00 0.00 84 1014.7
20260504070350 23 5 1.6 1.6 0.00 0.00 0.00 83 1015.7
20260504050737 25 23 1.6 1.6 0.00 0.00 0.00 81 1016.7
20260504050235 25 342 3.2 3.2 0.00 0.00 0.00 80 1016.9
20260504045727 24 323 1.6 1.6 0.00 0.00 0.00 83 1016.8
20260504045227 24 14 0.0 1.6 0.00 0.00 0.00 83 1017.0
20260504044724 24 41 1.6 1.6 0.00 0.00 0.00 83 1016.8
20260504044222 24 37 0.0 1.6 0.00 0.00 0.00 83 1017.1
20260504043719 24 31 1.6 1.6 0.00 0.00 0.00 83 1017.2
20260504043216 25 24 1.6 1.6 0.00 0.00 0.00 81 1017.4
20260504042714 25 21 1.6 1.6 0.00 0.00 0.00 81 1017.4
20260504042210 25 52 0.0 1.6 0.00 0.00 0.00 82 1017.3
20260504041706 25 47 1.6 1.6 0.00 0.00 0.00 81 1017.4
20260504041201 24 34 1.6 1.6 0.00 0.00 0.00 82 1017.7
20260504040659 24 58 0.0 1.6 0.00 0.00 0.00 82 1017.6
20260504040156 24 28 1.6 1.6 0.00 0.00 0.00 84 1017.7
20260504035652 23 50 1.6 3.2 0.00 0.00 0.00 86 1017.7
20260504035149 23 64 1.6 3.2 0.00 0.00 0.00 86 1017.7
20260504034647 24 68 1.6 3.2 0.00 0.00 0.00 85 1018.0
20260504034143 25 63 1.6 1.6 0.00 0.00 0.00 83 1017.7
20260504033641 25 45 0.0 1.6 0.00 0.00 0.00 82 1017.8
20260504033138 25 20 0.0 1.6 0.00 0.00 0.00 81 1017.8
20260504032635 25 296 0.0 1.6 0.00 0.00 0.00 81 1017.9
20260504032132 25 330 0.0 1.6 0.00 0.00 0.00 80 1017.8
20260504031629 25 352 1.6 1.6 0.00 0.00 0.00 81 1018.0
20260504031126 25 358 1.6 1.6 0.00 0.00 0.00 80 1017.9
20260504030622 25 314 1.6 1.6 0.00 0.00 0.00 81 1017.9
20260504030119 25 44 1.6 1.6 0.00 0.00 0.00 81 1017.7
20260504025616 25 47 1.6 1.6 0.00 0.00 0.00 80 1017.9
20260504025113 25 354 1.6 1.6 0.00 0.00 0.00 79 1017.7
20260504024610 26 324 0.0 0.0 0.00 0.00 0.00 78 1017.8
20260504024107 25 300 1.6 1.6 0.00 0.00 0.00 78 1017.8
20260504023603 25 275 1.6 1.6 0.00 0.00 0.00 78 1017.8
20260504023059 26 289 0.0 1.6 0.00 0.00 0.00 77 1017.6
20260504022555 26 250 1.6 1.6 0.00 0.00 0.00 77 1017.7
20260504022052 26 227 1.6 1.6 0.00 0.00 0.00 77 1017.5
20260504021549 26 208 1.6 1.6 0.00 0.00 0.00 77 1017.5
20260504021046 26 289 0.0 1.6 0.00 0.00 0.00 76 1017.4
20260504020543 26 238 0.0 1.6 0.00 0.00 0.00 76 1017.4
20260504020039 26 218 0.0 3.2 0.00 0.00 0.00 76 1017.2
20260504015536 26 180 3.2 3.2 0.00 0.00 0.00 77 1017.3
20260504015026 26 217 1.6 3.2 0.00 0.00 0.00 77 1017.3
20260504014523 26 198 1.6 3.2 0.00 0.00 0.00 77 1017.1
20260504014020 26 176 1.6 4.8 0.00 0.00 0.00 77 1017.1
20260504013518 26 154 1.6 3.2 0.00 0.00 0.00 76 1017.1
20260504013015 26 165 3.2 6.4 0.00 0.00 0.00 76 1016.9
20260504012512 26 164 4.8 4.8 0.00 0.00 0.00 76 1016.8
20260504012010 26 148 1.6 6.4 0.00 0.00 0.00 75 1016.8
20260504011506 27 183 3.2 6.4 0.00 0.00 0.00 74 1016.8
20260504011002 27 200 1.6 8.0 0.00 0.00 0.00 74 1016.5
20260504010458 27 176 3.2 6.4 0.00 0.00 0.00 73 1016.6
20260504005954 27 131 6.4 8.0 0.00 0.00 0.00 73 1016.3
20260504005451 27 192 4.8 9.7 0.00 0.00 0.00 73 1016.3
20260504004949 27 152 3.2 6.4 0.00 0.00 0.00 73 1016.2
20260504004446 27 189 1.6 4.8 0.00 0.00 0.00 73 1016.1
20260504003943 27 174 3.2 8.0 0.00 0.00 0.00 73 1015.9
20260504003439 27 122 3.2 4.8 0.00 0.00 0.00 73 1016.0
20260504002936 27 154 1.6 4.8 0.00 0.00 0.00 74 1015.9
20260504002433 27 172 3.2 8.0 0.00 0.00 0.00 74 1015.8
20260504001930 27 171 6.4 6.4 0.00 0.00 0.00 75 1015.8
20260504001428 27 252 1.6 4.8 0.00 0.00 0.00 75 1015.7
20260504000924 27 181 1.6 4.8 0.00 0.00 0.00 75 1015.6
20260504000423 27 184 1.6 6.4 0.00 0.00 0.00 75 1015.5
20260503235919 27 187 0.0 6.4 0.00 0.00 0.00 75 1015.6
20260503235416 27 215 1.6 3.2 0.00 0.00 0.00 75 1015.5
20260503234914 27 262 3.2 4.8 0.00 0.00 0.00 74 1015.6
20260503234411 27 210 3.2 3.2 0.00 0.00 0.00 74 1015.5
20260503233909 27 259 3.2 3.2 0.00 0.00 0.00 74 1015.5
20260503233405 27 204 3.2 6.4 0.00 0.00 0.00 74 1015.4
20260503232902 27 167 6.4 8.0 0.00 0.00 0.00 74 1015.3
20260503232359 27 231 3.2 4.8 0.00 0.00 0.00 73 1015.3
20260503231857 28 160 3.2 3.2 0.00 0.00 0.00 73 1015.4
20260503231354 28 225 1.6 4.8 0.00 0.00 0.00 72 1015.3
20260503230849 28 166 3.2 8.0 0.00 0.00 0.00 72 1015.3
20260503230346 28 237 3.2 3.2 0.00 0.00 0.00 72 1015.4
20260503225844 28 136 3.2 4.8 0.00 0.00 0.00 72 1015.2
20260503225340 28 178 0.0 3.2 0.00 0.00 0.00 72 1015.2
20260503224836 28 165 1.6 3.2 0.00 0.00 0.00 72 1015.3
20260503224334 28 163 1.6 8.0 0.00 0.00 0.00 72 1015.3
20260503223831 28 179 3.2 6.4 0.00 0.00 0.00 71 1015.2